EW9606 Weather Reports


time (UTC)temp
C
wind
direction
speed
KPH
gust
KPH
rain 1hr
cm
rain 24hr
cm
rain mn
cm
humidity
%
barometer
mb
20260504110607 17 283 19.3 41.8 0.00 0.76 0.00 64 1009.6
20260504110107 17 303 12.9 37.0 0.00 0.76 0.00 65 1009.8
20260504100606 16 271 17.7 38.6 0.00 0.76 0.00 64 1009.5
20260504100107 16 270 19.3 32.2 0.00 0.76 0.00 64 1009.5
20260504090106 15 268 19.3 33.8 0.00 0.76 0.00 64 1009.6
20260504081607 15 270 17.7 38.6 0.00 0.76 0.00 64 1009.1
20260504081106 15 292 20.9 37.0 0.00 0.76 0.00 64 1008.9
20260504080606 15 330 14.5 38.6 0.00 0.76 0.00 64 1009.1
20260504080106 15 313 16.1 38.6 0.00 0.76 0.00 64 1009.0
20260504070106 14 286 19.3 37.0 0.00 0.84 0.00 63 1008.1
20260504050607 12 292 17.7 35.4 0.00 0.84 0.00 62 1006.7
20260504045607 12 256 16.1 33.8 0.00 0.84 0.00 62 1006.9
20260504045107 12 270 11.3 33.8 0.00 0.84 0.00 62 1006.6
20260504044107 12 301 11.3 29.0 0.00 0.84 0.00 62 1006.5
20260504042606 12 284 14.5 27.4 0.00 0.84 0.00 62 1006.4
20260504042106 12 270 14.5 35.4 0.00 0.84 0.00 62 1006.2
20260504041607 12 338 14.5 33.8 0.00 0.84 0.00 61 1006.0
20260504041107 12 260 16.1 37.0 0.00 0.84 0.00 61 1005.8
20260504040607 12 278 16.1 33.8 0.00 0.84 0.00 61 1005.8
20260504040106 12 315 16.1 32.2 0.00 0.84 0.00 61 1005.6
20260504035606 12 338 12.9 35.4 0.00 0.84 0.00 61 1005.5
20260504035107 12 338 17.7 38.6 0.00 0.84 0.00 61 1005.4
20260504034606 12 343 14.5 32.2 0.00 0.84 0.00 61 1005.3
20260504032106 12 315 22.5 49.9 0.00 0.84 0.00 61 1005.3
20260504031606 12 292 22.5 41.8 0.00 0.84 0.00 61 1005.3
20260504031107 12 277 19.3 35.4 0.00 0.84 0.00 61 1005.4
20260504030607 12 257 11.3 33.8 0.00 0.84 0.00 61 1005.1
20260504030107 12 292 17.7 38.6 0.00 0.84 0.00 60 1005.2
20260504025606 12 292 22.5 37.0 0.00 0.84 0.00 60 1005.2
20260504025106 12 292 17.7 37.0 0.00 0.84 0.00 60 1005.3
20260504024607 12 279 19.3 37.0 0.00 0.84 0.00 60 1005.0
20260504024107 12 292 17.7 45.1 0.00 0.84 0.00 59 1005.1
20260504023608 12 22 20.9 46.7 0.00 0.84 0.00 59 1005.0
20260504022606 12 304 20.9 45.1 0.00 0.84 0.00 59 1004.9
20260504022107 12 276 22.5 46.7 0.00 0.84 0.00 59 1004.8
20260504021107 12 270 19.3 35.4 0.00 0.84 0.00 59 1004.9
20260504020607 12 270 14.5 45.1 0.00 0.84 0.00 59 1005.0
20260504020107 12 292 17.7 46.7 0.00 0.84 0.00 59 1004.7
20260504015107 12 283 16.1 46.7 0.00 0.84 0.00 59 1004.6
20260504014607 12 268 20.9 41.8 0.00 0.84 0.00 59 1004.5
20260504014107 12 280 11.3 32.2 0.00 0.84 0.00 59 1004.6
20260504013606 12 313 17.7 46.7 0.00 0.84 0.00 59 1004.6
20260504013107 12 270 19.3 46.7 0.00 0.84 0.00 59 1004.5
20260504012606 12 315 19.3 41.8 0.00 0.84 0.00 59 1004.7
20260504012106 12 313 22.5 38.6 0.00 0.84 0.00 59 1004.5
20260504011607 12 273 19.3 33.8 0.00 0.84 0.00 59 1004.5
20260504011106 12 246 16.1 38.6 0.00 0.84 0.00 59 1004.5
20260504010106 12 281 22.5 51.5 0.00 0.84 0.00 59 1004.3
20260504005606 12 285 22.5 46.7 0.00 0.84 0.00 59 1004.3
20260504005107 12 284 20.9 40.2 0.00 0.84 0.00 59 1004.3
20260504004607 12 296 22.5 46.7 0.00 0.84 0.00 59 1004.3
20260504004106 12 289 20.9 38.6 0.00 0.84 0.00 59 1004.3
20260504003607 12 292 16.1 46.7 0.00 0.84 0.00 59 1004.4
20260504003107 12 269 16.1 46.7 0.00 0.84 0.00 60 1004.3
20260504002607 12 284 20.9 40.2 0.00 0.84 0.00 59 1004.2
20260504002107 12 270 24.1 45.1 0.00 0.84 0.00 59 1004.2
20260504001107 12 292 20.9 45.1 0.00 0.84 0.00 59 1004.0
20260504000606 12 315 24.1 45.1 0.00 0.84 0.00 59 1004.1
20260504000106 12 315 22.5 48.3 0.00 0.84 0.00 59 1003.9
20260503235606 12 292 20.9 48.3 0.00 0.84 0.00 59 1004.0
20260503235107 12 292 19.3 33.8 0.00 0.84 0.00 59 1003.8
20260503234606 12 328 17.7 41.8 0.00 0.84 0.00 59 1003.8
20260503234107 12 292 25.7 41.8 0.00 0.84 0.00 59 1004.0
20260503233607 12 270 16.1 46.7 0.00 0.84 0.00 59 1004.0
20260503233106 12 315 20.9 48.3 0.00 0.84 0.00 59 1004.0
20260503232606 12 295 20.9 41.8 0.00 0.84 0.00 59 1003.7
20260503231608 12 292 14.5 40.2 0.00 0.84 0.00 59 1003.8
20260503231107 12 259 20.9 41.8 0.00 0.84 0.00 59 1003.7
20260503230606 12 275 24.1 38.6 0.00 0.84 0.00 59 1004.0
20260503230106 12 315 20.9 35.4 0.00 0.84 0.00 59 1003.8
20260503225607 12 259 27.4 46.7 0.00 0.84 0.00 59 1003.9
20260503225107 12 283 19.3 46.7 0.00 0.84 0.00 59 1003.9
20260503224606 12 275 16.1 35.4 0.00 0.84 0.00 59 1003.6
20260503224108 12 283 22.5 37.0 0.00 0.84 0.00 59 1003.7
20260503223107 12 248 19.3 40.2 0.00 0.84 0.00 59 1003.5
20260503222607 12 282 14.5 40.2 0.00 0.84 0.00 59 1003.7
20260503221607 12 348 20.9 35.4 0.00 0.84 0.00 59 1003.5
20260503220607 12 255 17.7 35.4 0.00 0.84 0.00 59 1003.4
20260503215606 12 282 19.3 37.0 0.00 0.84 0.00 59 1003.4
20260503215107 12 292 14.5 41.8 0.00 0.84 0.00 59 1003.3
20260503214606 12 269 22.5 41.8 0.00 0.84 0.00 59 1003.3
20260503214107 12 301 19.3 33.8 0.00 0.84 0.00 59 1003.4
20260503213606 12 349 22.5 48.3 0.00 0.84 0.00 59 1003.4
20260503213106 12 288 16.1 38.6 0.00 0.84 0.00 59 1003.3
20260503212606 12 315 19.3 38.6 0.00 0.84 0.00 59 1003.3
20260503212107 12 285 16.1 38.6 0.00 0.84 0.00 58 1003.2
20260503211106 12 299 17.7 48.3 0.00 0.84 0.00 59 1003.2
20260503210107 12 292 17.7 38.6 0.00 0.84 0.00 58 1003.0
20260503205607 12 316 11.3 38.6 0.00 0.84 0.84 59 1003.1
20260503204606 12 328 12.9 41.8 0.00 0.84 0.84 58 1003.3
20260503204106 12 299 19.3 41.8 0.00 0.84 0.84 58 1003.3
20260503203606 12 338 12.9 38.6 0.00 0.84 0.84 58 1003.1
20260503203106 12 300 19.3 35.4 0.00 0.84 0.84 58 1003.3
20260503202606 12 305 14.5 38.6 0.00 0.84 0.84 58 1003.1
20260503202107 12 295 22.5 38.6 0.00 0.84 0.84 58 1003.2
20260503201607 12 333 22.5 38.6 0.00 0.84 0.84 58 1003.0
20260503201106 12 270 20.9 37.0 0.00 0.84 0.84 58 1003.1
20260503200606 12 270 14.5 40.2 0.00 0.84 0.84 58 1003.3
20260503200106 12 285 17.7 33.8 0.00 0.84 0.84 58 1003.2
20260503195606 12 338 19.3 37.0 0.00 0.84 0.84 58 1003.1
20260503195107 12 270 9.7 35.4 0.00 0.84 0.84 58 1003.3
20260503194607 12 295 14.5 40.2 0.00 0.84 0.84 58 1003.0
20260503194108 12 292 19.3 37.0 0.00 0.84 0.84 58 1003.0
20260503193606 12 292 9.7 32.2 0.00 0.84 0.84 58 1002.8
20260503193106 12 281 16.1 33.8 0.00 0.84 0.84 58 1002.8
20260503192607 12 285 17.7 33.8 0.00 0.84 0.84 58 1002.7
20260503192107 12 311 14.5 32.2 0.00 0.84 0.84 58 1003.0
20260503191607 12 313 16.1 38.6 0.00 0.84 0.84 58 1002.8
20260503191106 12 280 19.3 33.8 0.00 0.84 0.84 58 1003.0
20260503190606 12 279 14.5 48.3 0.00 0.84 0.84 58 1003.0
20260503190107 12 295 11.3 48.3 0.00 0.84 0.84 58 1003.0
20260503185607 12 300 9.7 25.7 0.00 0.84 0.84 58 1002.9
20260503185107 12 288 12.9 40.2 0.00 0.84 0.84 58 1002.9
20260503184107 12 330 16.1 33.8 0.00 0.84 0.84 57 1002.7
20260503183607 12 307 14.5 33.8 0.00 0.84 0.84 58 1002.7
20260503183106 12 321 16.1 27.4 0.00 0.84 0.84 58 1002.8
20260503182606 12 327 17.7 40.2 0.00 0.84 0.84 57 1002.6
20260503182107 12 329 8.0 32.2 0.00 0.84 0.84 57 1002.6
20260503181606 12 318 11.3 33.8 0.00 0.84 0.84 57 1002.6
20260503181106 12 248 16.1 35.4 0.00 0.84 0.84 58 1002.5
20260503180607 12 285 14.5 38.6 0.00 0.84 0.84 57 1002.6
20260503180107 12 314 14.5 33.8 0.00 0.84 0.84 58 1002.6
20260503175606 12 307 14.5 48.3 0.00 0.84 0.84 57 1002.6
20260503175107 12 292 16.1 48.3 0.00 0.84 0.84 57 1002.5
20260503174107 12 239 14.5 32.2 0.00 0.84 0.84 57 1002.2
20260503173606 12 270 16.1 46.7 0.00 0.84 0.84 57 1002.2
20260503173107 12 274 19.3 40.2 0.00 0.84 0.84 57 1002.1
20260503172606 12 315 9.7 33.8 0.00 0.84 0.84 57 1002.2
20260503171608 12 292 12.9 37.0 0.00 0.84 0.84 57 1002.1
20260503171106 12 253 14.5 37.0 0.00 0.84 0.84 57 1002.1
20260503170606 12 248 14.5 29.0 0.00 0.84 0.84 57 1001.9
20260503160106 11 271 16.1 37.0 0.05 0.84 0.84 49 1001.7
20260503150606 13 280 17.7 40.2 0.00 0.79 0.79 57 1002.0
20260503150107 13 265 14.5 35.4 0.00 0.79 0.79 57 1002.0
20260503140106 12 255 19.3 37.0 0.15 0.79 0.79 54 1002.3
20260503131107 13 274 19.3 41.8 0.41 0.64 0.64 53 1002.5
20260503130106 13 294 19.3 37.0 0.56 0.64 0.64 49 1002.4
20260503120106 15 300 14.5 24.1 0.00 0.10 0.10 65 1002.5